Погода в Агдаше

Азербайджан     40°38′46″N   47°28′25″E
темп.,
°C
ветер,
м/с
пор.,
м/с
влажн.,
%
обл.,
%
осадки,
мм/ч
давл.,
гПа
погр.,
м
17 мая, пн
пн1701:00+18св11399 0.0 101112
04:00+18ссв11386 0.0 101111
07:00+20ссз11375 0.0 101161
10:00+26зюз222866 0.0 1010791
13:00+30ююз22220 0.0 10081235
16:00+32ююв442022 0.0 10051236
19:00+28з572891 0.1 1007252
22:00+21всв234986 0.1 100632
18 мая, вт
вт1801:00+19с11661 0.0 100711
04:00+18с22650 0.0 100615
07:00+20сз34610 0.0 1007153
10:00+26зсз674358 0.0 1007705
13:00+32зсз682636 0.0 10062032
16:00+32зсз69215 0.0 10052928
19:00+29сз46270 0.0 1007190
22:00+20вюв465612 0.0 1010164
19 мая, ср
ср1901:00+18в34750 0.0 101181
04:00+17всв22780 0.0 101117
07:00+20всв12650 0.0 1011141
10:00+25ююв32470 0.0 1010945
13:00+30зюз44300 0.0 10081476
16:00+32з89240 0.0 10061583
19:00+29зсз711282 0.0 1007805
22:00+21сз8155666 0.0 1010343
20 мая, чт
чт2001:00+18ссз228149 0.5 101349
04:00+17ссз11875 1.1 101511
07:00+19всв24771 0.1 1016256
10:00+24вюв66525 0.1 10171168
13:00+28юв55350 0.0 10161647
16:00+30ююв43280 0.0 10142041
19:00+28ююв45340 0.0 1014388
22:00+21юв510520 0.0 1017358
21 мая, пт
пт2101:00+17в23640 0.0 101764
04:00+16всв11670 0.0 101712
07:00+19юв11590 0.0 1018150
10:00+24ююз21420 0.0 1017797
13:00+29ююз32320 0.0 10151232
16:00+32ююз32280 0.0 10131339
19:00+30ююз33320 0.0 1012162
22:00+24вюв610470 0.0 1015273